Regional Weather Roundup
Issued by NWS

Home | Current Version | Previous Version | Graphics & Text | Print | Product List | Glossary On
Versions: 1 2 3 4 5 6 7 8 9 10 11 12 13 14 15 16 17 18 19 20 21 22 23 24 25 26 27 28 29 30 31 32 33 34 35 36 37 38 39 40 41 42 43 44 45 46 47 48 49 50
000
ASUS44 KMEG 290900
RWRTN
TENNESSEE HOURLY STATE WEATHER ROUNDUP
NATIONAL WEATHER SERVICE MEMPHIS TN
300 AM CST MON DEC 29 2014

TNZ002-004-019-021-049-052-054-088>092-291000-
WEST TENNESSEE

CITY           SKY/WX    TMP DP  RH WIND       PRES   REMARKS
MEMPHIS INTL   CLOUDY    38  35  89 N7        30.17R WCI  33
NWS MEMPHIS      N/A     37 N/A N/A MISG        N/A
JACKSON        CLOUDY    37  34  89 N9        30.18R WCI  30
DYERSBURG      CLOUDY    36  21  55 NE8       30.21S WCI  29
UNION CITY     CLOUDY    32  30  93 N7        30.20R WCI  26
PARIS          CLOUDY    32  28  86 NE10      30.18F WCI  24
LEXINGTON      CLOUDY    36  34  93 N6        30.14F WCI  31
SAVANNAH       CLOUDY    37  37 100 N7        30.14S WCI  32
$$

TNZ008-025-027-028-033-062-065-066-291000-
NORTH MIDDLE TENNESSEE

CITY           SKY/WX    TMP DP  RH WIND       PRES   REMARKS
NASHVILLE      CLOUDY    37  36  96 N6        30.16S FOG     WCI  32
CLARKSVILLE    CLOUDY    35  32  88 N8        30.18S WCI  29
COOKEVILLE     CLOUDY    39  39 100 N3        30.09F
CROSSVILLE     LGT RAIN  42  40  92 NE5       30.08F
$$

TNZ061-075-076-078-094-096-097-291000-
SOUTH MIDDLE TENNESSEE

CITY           SKY/WX    TMP DP  RH WIND       PRES   REMARKS
FAYETTEVILLE   CLOUDY    37  37 100 N6        30.09F WCI  33
TULLAHOMA      CLOUDY    37  37 100 N6        30.10S WCI  33
WINCHESTER     CLOUDY    39  39 100 NW3       30.10F
SHELBYVILLE    CLOUDY    37  37 100 N5        30.13S WCI  34
$$

TNZ017-018-042-046-047-291000-
NORTHEAST TENNESSEE

CITY           SKY/WX    TMP DP  RH WIND       PRES   REMARKS
TRI CITIES     LGT RAIN  48  48 100 CALM      30.08F FOG
ELIZABETHTON   LGT RAIN  46  46 100 CALM      30.08S
$$

TNZ012-013-036-069-073-074-291000-
CENTRAL EAST TENNESSEE

CITY           SKY/WX    TMP DP  RH WIND       PRES   REMARKS
KNOXVILLE      CLOUDY    46  46 100 N6        30.08F
OAK RIDGE      LGT RAIN  46  44  93 CALM      30.10F
GATLINBURG     CLOUDY    46  46 100 CALM      30.07F
$$

TNZ083-085-099-291000-
SOUTHEAST TENNESSEE

CITY           SKY/WX    TMP DP  RH WIND       PRES   REMARKS
CHATTANOOGA    LGT RAIN  49  48  97 N5        30.08F
$$

SKY/WX REPORTED AS FAIR MEANS FEW OR NO CLOUDS BELOW
12 THOUSAND FEET.




USA.gov is the U.S. government's official web portal to all federal, state and local government web resources and services.